Time,TemperatureF,DewpointF,PressureIn,WindDirection,WindDirectionDegrees,WindSpeedMPH,WindSpeedGustMPH,Humidity,HourlyPrecipIn,Conditions,Clouds,dailyrainin,SoftwareType,DateUTC
2013-05-11 00:00:00,65.5,57.7,29.97,NW,310,0.0,0.0,76,0.00,,---,0.00,VWS V14.01,2013-05-11 07:00:00,
2013-05-11 00:05:00,65.4,57.7,29.97,NW,310,0.0,0.0,76,0.00,,---,0.00,VWS V14.01,2013-05-11 07:05:00,
2013-05-11 00:10:00,65.4,57.7,29.98,NW,310,0.0,0.0,76,0.00,,---,0.00,VWS V14.01,2013-05-11 07:10:00,
2013-05-11 00:15:00,65.2,57.5,29.98,NW,310,0.0,0.0,76,0.00,,---,0.00,VWS V14.01,2013-05-11 07:15:00,
2013-05-11 00:20:00,65.0,57.3,29.97,NW,310,0.0,0.0,76,0.00,,---,0.00,VWS V14.01,2013-05-11 07:20:00,
2013-05-11 00:25:00,64.7,57.3,29.97,NW,310,0.0,0.0,77,0.00,,---,0.00,VWS V14.01,2013-05-11 07:25:00,
2013-05-11 00:30:00,64.5,57.1,29.97,NW,310,0.0,0.0,77,0.00,,---,0.00,VWS V14.01,2013-05-11 07:30:00,
2013-05-11 00:35:00,64.4,57.4,29.97,NW,310,0.0,0.0,78,0.00,,---,0.00,VWS V14.01,2013-05-11 07:35:00,
2013-05-11 00:40:00,64.1,57.1,29.97,NW,310,0.0,0.0,78,0.00,,---,0.00,VWS V14.01,2013-05-11 07:40:00,
2013-05-11 00:45:00,64.1,57.5,29.97,NW,310,0.0,0.0,79,0.00,,---,0.00,VWS V14.01,2013-05-11 07:45:00,
2013-05-11 00:50:00,64.2,58.6,29.97,NW,310,0.0,0.0,82,0.00,,---,0.00,VWS V14.01,2013-05-11 07:50:00,
2013-05-11 00:55:00,64.2,58.3,29.97,NW,309,0.0,0.0,81,0.00,,---,0.00,VWS V14.01,2013-05-11 07:55:00,
2013-05-11 01:00:00,63.9,57.6,29.97,NW,310,0.0,0.0,80,0.00,,---,0.00,VWS V14.01,2013-05-11 08:00:00,
2013-05-11 01:05:00,63.7,57.4,29.98,NW,310,1.0,0.0,80,0.00,,---,0.00,VWS V14.01,2013-05-11 08:05:00,
2013-05-11 01:10:00,63.8,57.5,29.98,NW,310,0.0,0.0,80,0.00,,---,0.00,VWS V14.01,2013-05-11 08:10:00,
2013-05-11 01:15:00,63.9,57.6,29.98,NW,310,0.0,0.0,80,0.00,,---,0.00,VWS V14.01,2013-05-11 08:15:00,
2013-05-11 01:20:00,64.2,57.9,29.98,NW,310,0.0,0.0,80,0.00,,---,0.00,VWS V14.01,2013-05-11 08:20:00,
2013-05-11 01:25:00,64.2,57.9,29.98,NW,310,0.0,0.0,80,0.00,,---,0.00,VWS V14.01,2013-05-11 08:25:00,
2013-05-11 01:30:00,64.1,57.8,29.98,NW,310,0.0,0.0,80,0.00,,---,0.00,VWS V14.01,2013-05-11 08:30:00,
2013-05-11 01:36:00,64.0,58.1,29.98,NW,310,0.0,0.0,81,0.00,,---,0.00,VWS V14.01,2013-05-11 08:36:00,
2013-05-11 01:41:00,64.0,57.7,29.98,NW,310,0.0,0.0,80,0.00,,---,0.00,VWS V14.01,2013-05-11 08:41:00,
2013-05-11 01:46:00,63.8,57.9,29.98,NW,310,0.0,0.0,81,0.00,,---,0.00,VWS V14.01,2013-05-11 08:46:00,
2013-05-11 01:51:00,63.6,57.7,29.98,NW,310,0.0,0.0,81,0.00,,---,0.00,VWS V14.01,2013-05-11 08:51:00,
2013-05-11 01:56:00,63.4,57.8,29.98,NW,310,0.0,0.0,82,0.00,,---,0.00,VWS V14.01,2013-05-11 08:56:00,
2013-05-11 02:01:00,63.3,58.1,29.98,NW,310,0.0,0.0,83,0.00,,---,0.00,VWS V14.01,2013-05-11 09:01:00,
2013-05-11 02:06:00,63.2,58.0,29.98,NW,310,0.0,0.0,83,0.00,,---,0.00,VWS V14.01,2013-05-11 09:06:00,
2013-05-11 02:11:00,63.2,58.3,29.98,NW,310,0.0,0.0,84,0.00,,---,0.00,VWS V14.01,2013-05-11 09:11:00,
2013-05-11 02:16:00,63.1,58.5,29.97,NW,310,0.0,0.0,85,0.00,,---,0.00,VWS V14.01,2013-05-11 09:16:00,
2013-05-11 02:21:00,63.0,58.8,29.97,NW,310,0.0,0.0,86,0.00,,---,0.00,VWS V14.01,2013-05-11 09:21:00,
2013-05-11 02:26:00,63.1,58.8,29.97,NW,310,0.0,0.0,86,0.00,,---,0.00,VWS V14.01,2013-05-11 09:26:00,
2013-05-11 02:31:00,63.2,59.0,29.97,NW,310,0.0,0.0,86,0.00,,---,0.00,VWS V14.01,2013-05-11 09:31:00,
2013-05-11 02:36:00,63.3,58.7,29.97,NW,310,0.0,0.0,85,0.00,,---,0.00,VWS V14.01,2013-05-11 09:36:00,
2013-05-11 02:41:00,63.3,59.0,29.97,NW,310,0.0,0.0,86,0.00,,---,0.00,VWS V14.01,2013-05-11 09:41:00,
2013-05-11 02:46:00,63.3,58.7,29.97,NW,310,0.0,0.0,85,0.00,,---,0.00,VWS V14.01,2013-05-11 09:46:00,
2013-05-11 02:51:00,63.2,58.6,29.97,NW,310,0.0,0.0,85,0.00,,---,0.00,VWS V14.01,2013-05-11 09:51:00,
2013-05-11 02:56:00,63.2,59.0,29.97,NW,311,0.0,0.0,86,0.00,,---,0.00,VWS V14.01,2013-05-11 09:56:00,
2013-05-11 03:01:00,63.2,59.0,29.97,NW,310,0.0,0.0,86,0.00,,---,0.00,VWS V14.01,2013-05-11 10:01:00,
2013-05-11 03:06:00,63.3,59.0,29.96,NW,310,0.0,0.0,86,0.00,,---,0.00,VWS V14.01,2013-05-11 10:06:00,
2013-05-11 03:11:00,63.4,59.2,29.96,East,90,1.0,0.0,86,0.00,,---,0.00,VWS V14.01,2013-05-11 10:11:00,
2013-05-11 03:16:00,63.4,59.2,29.96,ESE,107,0.0,0.0,86,0.00,,---,0.00,VWS V14.01,2013-05-11 10:16:00,
2013-05-11 03:21:00,63.5,59.2,29.96,ESE,105,0.0,0.0,86,0.00,,---,0.00,VWS V14.01,2013-05-11 10:21:00,
2013-05-11 03:27:00,63.7,59.1,29.96,ESE,105,0.0,0.0,85,0.00,,---,0.00,VWS V14.01,2013-05-11 10:27:00,
2013-05-11 03:32:00,63.8,59.2,29.96,East,84,0.0,0.0,85,0.00,,---,0.00,VWS V14.01,2013-05-11 10:32:00,
2013-05-11 03:37:00,63.9,59.3,29.96,ENE,77,0.0,0.0,85,0.00,,---,0.00,VWS V14.01,2013-05-11 10:37:00,
2013-05-11 03:42:00,64.0,59.4,29.96,NW,313,0.0,0.0,85,0.00,,---,0.00,VWS V14.01,2013-05-11 10:42:00,
2013-05-11 03:47:00,64.2,59.3,29.96,East,88,0.0,0.0,84,0.00,,---,0.00,VWS V14.01,2013-05-11 10:47:00,
2013-05-11 03:52:00,64.2,59.3,29.96,East,88,0.0,0.0,84,0.00,,---,0.00,VWS V14.01,2013-05-11 10:52:00,
2013-05-11 03:57:00,64.3,59.4,29.96,East,88,0.0,0.0,84,0.00,,---,0.00,VWS V14.01,2013-05-11 10:57:00,
2013-05-11 04:02:00,64.3,59.4,29.95,ENE,78,0.0,0.0,84,0.00,,---,0.00,VWS V14.01,2013-05-11 11:02:00,
2013-05-11 04:07:00,64.3,59.4,29.96,East,80,0.0,0.0,84,0.00,,---,0.00,VWS V14.01,2013-05-11 11:07:00,
2013-05-11 04:12:00,64.3,59.4,29.95,East,82,0.0,0.0,84,0.00,,---,0.00,VWS V14.01,2013-05-11 11:12:00,
2013-05-11 04:17:00,64.3,59.4,29.96,East,82,0.0,0.0,84,0.00,,---,0.00,VWS V14.01,2013-05-11 11:17:00,
2013-05-11 04:22:00,64.3,59.4,29.96,East,82,0.0,0.0,84,0.00,,---,0.00,VWS V14.01,2013-05-11 11:22:00,
2013-05-11 04:27:00,64.4,59.1,29.96,East,82,1.0,0.0,83,0.00,,---,0.00,VWS V14.01,2013-05-11 11:27:00,
2013-05-11 04:32:00,64.5,59.2,29.96,East,82,0.0,0.0,83,0.00,,---,0.00,VWS V14.01,2013-05-11 11:32:00,
2013-05-11 04:37:00,64.5,59.2,29.96,East,82,0.0,0.0,83,0.00,,---,0.00,VWS V14.01,2013-05-11 11:37:00,
2013-05-11 04:42:00,64.4,59.1,29.96,East,82,0.0,0.0,83,0.00,,---,0.00,VWS V14.01,2013-05-11 11:42:00,
2013-05-11 04:47:00,64.1,58.8,29.96,East,82,0.0,0.0,83,0.00,,---,0.00,VWS V14.01,2013-05-11 11:47:00,
2013-05-11 04:52:00,63.9,59.0,29.96,East,82,0.0,0.0,84,0.00,,---,0.00,VWS V14.01,2013-05-11 11:52:00,
2013-05-11 04:58:00,63.7,58.8,29.96,East,82,0.0,0.0,84,0.00,,---,0.00,VWS V14.01,2013-05-11 11:58:00,
2013-05-11 05:03:00,63.5,58.2,29.96,East,82,0.0,0.0,83,0.00,,---,0.00,VWS V14.01,2013-05-11 12:03:00,
2013-05-11 05:08:00,63.3,57.7,29.96,East,82,0.0,0.0,82,0.00,,---,0.00,VWS V14.01,2013-05-11 12:08:00,
2013-05-11 05:13:00,63.0,57.1,29.96,North,5,0.0,0.0,81,0.00,,---,0.00,VWS V14.01,2013-05-11 12:13:00,
2013-05-11 05:18:00,62.6,56.7,29.95,North,5,0.0,0.0,81,0.00,,---,0.00,VWS V14.01,2013-05-11 12:18:00,
2013-05-11 05:23:00,62.1,56.2,29.95,North,5,0.0,0.0,81,0.00,,---,0.00,VWS V14.01,2013-05-11 12:23:00,
2013-05-11 05:28:00,61.8,56.6,29.95,North,5,0.0,0.0,83,0.00,,---,0.00,VWS V14.01,2013-05-11 12:28:00,
2013-05-11 05:33:00,61.4,56.5,29.95,North,5,0.0,0.0,84,0.00,,---,0.00,VWS V14.01,2013-05-11 12:33:00,
2013-05-11 05:38:00,61.2,56.3,29.95,North,5,0.0,0.0,84,0.00,,---,0.00,VWS V14.01,2013-05-11 12:38:00,
2013-05-11 05:43:00,60.9,56.0,29.94,North,5,0.0,0.0,84,0.00,,---,0.00,VWS V14.01,2013-05-11 12:43:00,
2013-05-11 05:48:00,60.7,56.2,29.95,North,5,0.0,0.0,85,0.00,,---,0.00,VWS V14.01,2013-05-11 12:48:00,
2013-05-11 05:53:00,60.5,56.3,29.95,North,5,0.0,0.0,86,0.00,,---,0.00,VWS V14.01,2013-05-11 12:53:00,
2013-05-11 05:58:00,60.4,56.5,29.95,North,5,0.0,0.0,87,0.00,,---,0.00,VWS V14.01,2013-05-11 12:58:00,
2013-05-11 06:03:00,60.4,56.5,29.95,North,5,0.0,0.0,87,0.00,,---,0.00,VWS V14.01,2013-05-11 13:03:00,
2013-05-11 06:08:00,60.4,56.5,29.95,North,5,0.0,0.0,87,0.00,,---,0.00,VWS V14.01,2013-05-11 13:08:00,
2013-05-11 06:13:00,60.4,56.8,29.95,North,9,0.0,0.0,88,0.00,,---,0.00,VWS V14.01,2013-05-11 13:13:00,
2013-05-11 06:18:00,60.5,56.9,29.96,North,5,0.0,0.0,88,0.00,,---,0.00,VWS V14.01,2013-05-11 13:18:00,
2013-05-11 06:23:00,60.7,57.1,29.96,North,5,0.0,0.0,88,0.00,,---,0.00,VWS V14.01,2013-05-11 13:23:00,
2013-05-11 06:28:00,60.7,57.1,29.96,North,5,0.0,0.0,88,0.00,,---,0.00,VWS V14.01,2013-05-11 13:28:00,
2013-05-11 06:33:00,60.8,57.5,29.96,North,9,0.0,0.0,89,0.00,,---,0.00,VWS V14.01,2013-05-11 13:33:00,
2013-05-11 06:38:00,61.2,57.6,29.96,North,5,0.0,0.0,88,0.00,,---,0.00,VWS V14.01,2013-05-11 13:38:00,
2013-05-11 06:44:00,61.6,58.0,29.96,North,5,0.0,0.0,88,0.00,,---,0.00,VWS V14.01,2013-05-11 13:44:00,
2013-05-11 06:49:00,61.7,57.8,29.96,North,9,0.0,0.0,87,0.00,,---,0.00,VWS V14.01,2013-05-11 13:49:00,
2013-05-11 06:54:00,61.9,58.0,29.97,North,5,0.0,0.0,87,0.00,,---,0.00,VWS V14.01,2013-05-11 13:54:00,
2013-05-11 06:59:00,62.0,58.1,29.97,North,5,0.0,0.0,87,0.00,,---,0.00,VWS V14.01,2013-05-11 13:59:00,
2013-05-11 07:04:00,62.2,58.3,29.97,North,5,0.0,0.0,87,0.00,,---,0.00,VWS V14.01,2013-05-11 14:04:00,
2013-05-11 07:09:00,62.3,58.1,29.97,North,5,0.0,0.0,86,0.00,,---,0.00,VWS V14.01,2013-05-11 14:09:00,
2013-05-11 07:14:00,62.3,58.1,29.97,North,5,0.0,0.0,86,0.00,,---,0.00,VWS V14.01,2013-05-11 14:14:00,
2013-05-11 07:19:00,62.7,58.5,29.97,North,5,0.0,0.0,86,0.00,,---,0.00,VWS V14.01,2013-05-11 14:19:00,
2013-05-11 07:24:00,63.0,58.4,29.97,North,5,0.0,0.0,85,0.00,,---,0.00,VWS V14.01,2013-05-11 14:24:00,
2013-05-11 07:29:00,63.1,58.5,29.97,North,5,0.0,0.0,85,0.00,,---,0.00,VWS V14.01,2013-05-11 14:29:00,
2013-05-11 07:34:00,63.5,58.9,29.97,North,5,0.0,0.0,85,0.00,,---,0.00,VWS V14.01,2013-05-11 14:34:00,
2013-05-11 07:39:00,63.6,58.3,29.97,North,5,0.0,0.0,83,0.00,,---,0.00,VWS V14.01,2013-05-11 14:39:00,
2013-05-11 07:44:00,63.8,58.9,29.98,North,5,0.0,0.0,84,0.00,,---,0.00,VWS V14.01,2013-05-11 14:44:00,
2013-05-11 07:49:00,63.9,58.6,29.98,North,5,1.0,0.0,83,0.00,,---,0.00,VWS V14.01,2013-05-11 14:49:00,
2013-05-11 07:54:00,64.0,58.4,29.98,North,5,0.0,0.0,82,0.00,,---,0.00,VWS V14.01,2013-05-11 14:54:00,
2013-05-11 07:59:00,64.1,58.5,29.98,North,5,1.0,0.0,82,0.00,,---,0.00,VWS V14.01,2013-05-11 14:59:00,
2013-05-11 08:04:00,64.4,58.8,29.98,North,5,0.0,0.0,82,0.00,,---,0.00,VWS V14.01,2013-05-11 15:04:00,
2013-05-11 08:09:00,64.8,59.2,29.98,North,9,0.0,0.0,82,0.00,,---,0.00,VWS V14.01,2013-05-11 15:09:00,
2013-05-11 08:15:00,65.4,59.4,29.98,North,5,0.0,0.0,81,0.00,,---,0.00,VWS V14.01,2013-05-11 15:15:00,
2013-05-11 08:20:00,66.1,59.4,29.98,North,5,0.0,0.0,79,0.00,,---,0.00,VWS V14.01,2013-05-11 15:20:00,
2013-05-11 08:25:00,66.8,59.7,29.99,North,5,1.0,0.0,78,0.00,,---,0.00,VWS V14.01,2013-05-11 15:25:00,
2013-05-11 08:30:00,67.3,59.8,29.98,North,5,0.0,0.0,77,0.00,,---,0.00,VWS V14.01,2013-05-11 15:30:00,
2013-05-11 08:35:00,67.6,59.8,29.98,North,5,0.0,0.0,76,0.00,,---,0.00,VWS V14.01,2013-05-11 15:35:00,
2013-05-11 08:40:00,67.9,60.1,29.98,North,5,0.0,0.0,76,0.00,,---,0.00,VWS V14.01,2013-05-11 15:40:00,
2013-05-11 08:45:00,68.3,60.1,29.98,North,5,0.0,0.0,75,0.00,,---,0.00,VWS V14.01,2013-05-11 15:45:00,
2013-05-11 08:50:00,68.7,60.1,29.98,North,5,0.0,0.0,74,0.00,,---,0.00,VWS V14.01,2013-05-11 15:50:00,
2013-05-11 08:55:00,69.1,60.5,29.98,North,5,0.0,0.0,74,0.00,,---,0.00,VWS V14.01,2013-05-11 15:55:00,
2013-05-11 09:00:00,69.4,60.8,29.98,North,9,0.0,0.0,74,0.00,,---,0.00,VWS V14.01,2013-05-11 16:00:00,
2013-05-11 09:05:00,69.7,61.0,29.98,North,5,0.0,0.0,74,0.00,,---,0.00,VWS V14.01,2013-05-11 16:05:00,
2013-05-11 09:10:00,69.9,60.9,29.98,North,5,0.0,0.0,73,0.00,,---,0.00,VWS V14.01,2013-05-11 16:10:00,
2013-05-11 09:15:00,70.2,61.2,29.98,North,5,0.0,0.0,73,0.00,,---,0.00,VWS V14.01,2013-05-11 16:15:00,
2013-05-11 09:20:00,70.4,61.0,29.98,North,5,0.0,0.0,72,0.00,,---,0.00,VWS V14.01,2013-05-11 16:20:00,
2013-05-11 09:25:00,70.8,61.3,29.98,North,5,0.0,0.0,72,0.00,,---,0.00,VWS V14.01,2013-05-11 16:25:00,
2013-05-11 09:30:00,71.1,60.8,29.98,North,5,0.0,0.0,70,0.00,,---,0.00,VWS V14.01,2013-05-11 16:30:00,
2013-05-11 09:35:00,71.6,61.3,29.98,North,5,0.0,0.0,70,0.00,,---,0.00,VWS V14.01,2013-05-11 16:35:00,
2013-05-11 09:40:00,71.9,61.6,29.98,North,5,0.0,0.0,70,0.00,,---,0.00,VWS V14.01,2013-05-11 16:40:00,
2013-05-11 09:46:00,72.4,60.8,29.98,WSW,242,0.0,0.0,67,0.00,,---,0.00,VWS V14.01,2013-05-11 16:46:00,
2013-05-11 09:51:00,73.1,61.9,29.98,West,265,0.0,0.0,68,0.00,,---,0.00,VWS V14.01,2013-05-11 16:51:00,
2013-05-11 09:56:00,73.6,62.4,29.98,NW,307,0.0,0.0,68,0.00,,---,0.00,VWS V14.01,2013-05-11 16:56:00,
2013-05-11 10:01:00,74.3,62.2,29.98,ENE,76,0.0,0.0,66,0.00,,---,0.00,VWS V14.01,2013-05-11 17:01:00,
2013-05-11 10:06:00,74.8,60.9,29.98,ESE,106,0.0,0.0,62,0.00,,---,0.00,VWS V14.01,2013-05-11 17:06:00,
2013-05-11 10:11:00,75.4,60.1,29.98,NW,311,0.0,0.0,59,0.00,,---,0.00,VWS V14.01,2013-05-11 17:11:00,
2013-05-11 10:16:00,76.0,60.2,29.98,NW,314,0.0,0.0,58,0.00,,---,0.00,VWS V14.01,2013-05-11 17:16:00,
2013-05-11 10:21:00,76.4,59.6,29.98,SSW,202,0.0,0.0,56,0.00,,---,0.00,VWS V14.01,2013-05-11 17:21:00,
2013-05-11 10:26:00,77.2,60.3,29.98,NNW,344,0.0,0.0,56,0.00,,---,0.00,VWS V14.01,2013-05-11 17:26:00,
2013-05-11 10:31:00,77.9,61.0,29.98,NNW,344,0.0,0.0,56,0.00,,---,0.00,VWS V14.01,2013-05-11 17:31:00,
2013-05-11 10:36:00,78.5,61.0,29.98,WNW,286,2.0,0.0,55,0.00,,---,0.00,VWS V14.01,2013-05-11 17:36:00,
2013-05-11 10:41:00,78.9,60.9,29.98,WSW,243,0.0,0.0,54,0.00,,---,0.00,VWS V14.01,2013-05-11 17:41:00,
2013-05-11 10:46:00,79.3,62.3,29.98,North,5,1.0,0.0,56,0.00,,---,0.00,VWS V14.01,2013-05-11 17:46:00,
2013-05-11 10:51:00,79.8,61.2,29.98,NNE,15,1.0,0.0,53,0.00,,---,0.00,VWS V14.01,2013-05-11 17:51:00,
2013-05-11 10:56:00,80.4,61.7,29.98,NE,45,0.0,0.0,53,0.00,,---,0.00,VWS V14.01,2013-05-11 17:56:00,
2013-05-11 11:01:00,81.0,61.2,29.98,NE,55,0.0,0.0,51,0.00,,---,0.00,VWS V14.01,2013-05-11 18:01:00,
2013-05-11 11:06:00,81.3,62.0,29.98,NNW,346,0.0,0.0,52,0.00,,---,0.00,VWS V14.01,2013-05-11 18:06:00,
2013-05-11 11:11:00,81.8,61.4,29.98,WNW,282,3.0,0.0,50,0.00,,---,0.00,VWS V14.01,2013-05-11 18:11:00,
2013-05-11 11:16:00,82.1,61.1,29.98,NE,48,0.0,0.0,49,0.00,,---,0.00,VWS V14.01,2013-05-11 18:16:00,
2013-05-11 11:22:00,82.5,62.0,29.98,SE,144,1.0,0.0,50,0.00,,---,0.00,VWS V14.01,2013-05-11 18:22:00,
2013-05-11 11:27:00,82.9,62.4,29.98,NE,44,0.0,0.0,50,0.00,,---,0.00,VWS V14.01,2013-05-11 18:27:00,
2013-05-11 11:32:00,83.5,61.8,29.98,WNW,282,0.0,0.0,48,0.00,,---,0.00,VWS V14.01,2013-05-11 18:32:00,
2013-05-11 11:37:00,84.0,62.2,29.97,NW,309,1.0,0.0,48,0.00,,---,0.00,VWS V14.01,2013-05-11 18:37:00,
2013-05-11 11:42:00,84.2,61.2,29.97,West,273,0.0,0.0,46,0.00,,---,0.00,VWS V14.01,2013-05-11 18:42:00,
2013-05-11 11:47:00,83.3,61.0,29.97,WNW,296,0.0,0.0,47,0.00,,---,0.00,VWS V14.01,2013-05-11 18:47:00,
2013-05-11 11:52:00,83.6,61.8,29.97,NNE,24,0.0,0.0,48,0.00,,---,0.00,VWS V14.01,2013-05-11 18:52:00,
2013-05-11 11:57:00,84.1,62.3,29.97,ENE,70,1.0,0.0,48,0.00,,---,0.00,VWS V14.01,2013-05-11 18:57:00,
2013-05-11 12:02:00,84.4,61.4,29.97,WNW,285,1.0,0.0,46,0.00,,---,0.00,VWS V14.01,2013-05-11 19:02:00,
2013-05-11 12:07:00,84.6,61.6,29.97,West,278,3.0,0.0,46,0.00,,---,0.00,VWS V14.01,2013-05-11 19:07:00,
2013-05-11 12:12:00,84.7,62.3,29.97,WNW,285,0.0,0.0,47,0.00,,---,0.00,VWS V14.01,2013-05-11 19:12:00,
2013-05-11 12:17:00,85.2,60.8,29.97,East,99,4.0,0.0,44,0.00,,---,0.00,VWS V14.01,2013-05-11 19:17:00,
2013-05-11 12:22:00,85.4,61.7,29.96,NNE,33,0.0,0.0,45,0.00,,---,0.00,VWS V14.01,2013-05-11 19:22:00,
2013-05-11 12:27:00,85.8,62.0,29.96,NNE,28,0.0,0.0,45,0.00,,---,0.00,VWS V14.01,2013-05-11 19:27:00,
2013-05-11 12:32:00,86.0,62.8,29.96,West,280,3.0,0.0,46,0.00,,---,0.00,VWS V14.01,2013-05-11 19:32:00,
2013-05-11 12:37:00,86.2,62.4,29.96,NW,323,0.0,0.0,45,0.00,,---,0.00,VWS V14.01,2013-05-11 19:37:00,
2013-05-11 12:42:00,86.8,61.6,29.96,ENE,59,0.0,0.0,43,0.00,,---,0.00,VWS V14.01,2013-05-11 19:42:00,
2013-05-11 12:47:00,87.0,61.2,29.96,ESE,104,1.0,0.0,42,0.00,,---,0.00,VWS V14.01,2013-05-11 19:47:00,
2013-05-11 12:52:00,87.3,62.1,29.96,ESE,118,0.0,0.0,43,0.00,,---,0.00,VWS V14.01,2013-05-11 19:52:00,
2013-05-11 12:57:00,87.6,64.3,29.96,West,267,0.0,0.0,46,0.00,,---,0.00,VWS V14.01,2013-05-11 19:57:00,
2013-05-11 13:02:00,87.6,61.7,29.95,West,275,3.0,0.0,42,0.00,,---,0.00,VWS V14.01,2013-05-11 20:02:00,
2013-05-11 13:08:00,88.0,62.7,29.95,East,101,1.0,0.0,43,0.00,,---,0.00,VWS V14.01,2013-05-11 20:08:00,
2013-05-11 13:13:00,88.2,60.8,29.95,WNW,289,3.0,0.0,40,0.00,,---,0.00,VWS V14.01,2013-05-11 20:13:00,
2013-05-11 13:18:00,88.7,63.3,29.95,NE,38,0.0,0.0,43,0.00,,---,0.00,VWS V14.01,2013-05-11 20:18:00,
2013-05-11 13:23:00,89.3,61.8,29.95,NW,306,2.0,0.0,40,0.00,,---,0.00,VWS V14.01,2013-05-11 20:23:00,
2013-05-11 13:28:00,89.8,60.1,29.95,West,279,4.0,0.0,37,0.00,,---,0.00,VWS V14.01,2013-05-11 20:28:00,
2013-05-11 13:33:00,89.8,64.3,29.95,North,11,0.0,0.0,43,0.00,,---,0.00,VWS V14.01,2013-05-11 20:33:00,
2013-05-11 13:38:00,90.1,62.5,29.95,NNW,342,2.0,0.0,40,0.00,,---,0.00,VWS V14.01,2013-05-11 20:38:00,
2013-05-11 13:43:00,90.5,62.2,29.95,North,9,1.0,0.0,39,0.00,,---,0.00,VWS V14.01,2013-05-11 20:43:00,
2013-05-11 13:48:00,90.9,61.8,29.95,NNW,332,0.0,0.0,38,0.00,,---,0.00,VWS V14.01,2013-05-11 20:48:00,
2013-05-11 13:53:00,91.4,61.5,29.95,ENE,78,1.0,0.0,37,0.00,,---,0.00,VWS V14.01,2013-05-11 20:53:00,
2013-05-11 13:58:00,91.5,61.6,29.94,ENE,67,0.0,0.0,37,0.00,,---,0.00,VWS V14.01,2013-05-11 20:58:00,
2013-05-11 14:03:00,91.0,61.1,29.94,NNE,20,0.0,0.0,37,0.00,,---,0.00,VWS V14.01,2013-05-11 21:03:00,
2013-05-11 14:08:00,91.1,62.0,29.94,East,97,1.0,0.0,38,0.00,,---,0.00,VWS V14.01,2013-05-11 21:08:00,
2013-05-11 14:13:00,91.0,61.9,29.94,East,97,0.0,0.0,38,0.00,,---,0.00,VWS V14.01,2013-05-11 21:13:00,
2013-05-11 14:18:00,90.8,61.7,29.94,NE,44,0.0,0.0,38,0.00,,---,0.00,VWS V14.01,2013-05-11 21:18:00,
2013-05-11 14:23:00,90.8,63.9,29.94,NNE,23,4.0,0.0,41,0.00,,---,0.00,VWS V14.01,2013-05-11 21:23:00,
2013-05-11 14:28:00,91.5,61.6,29.94,ENE,78,1.0,0.0,37,0.00,,---,0.00,VWS V14.01,2013-05-11 21:28:00,
2013-05-11 14:33:00,92.2,63.7,29.93,WNW,301,1.0,0.0,39,0.00,,---,0.00,VWS V14.01,2013-05-11 21:33:00,
2013-05-11 14:39:00,91.6,62.4,29.93,WSW,248,3.0,0.0,38,0.00,,---,0.00,VWS V14.01,2013-05-11 21:39:00,
2013-05-11 14:44:00,91.1,61.2,29.93,ENE,76,0.0,0.0,37,0.00,,---,0.00,VWS V14.01,2013-05-11 21:44:00,
2013-05-11 14:49:00,91.2,62.8,29.93,North,355,0.0,0.0,39,0.00,,---,0.00,VWS V14.01,2013-05-11 21:49:00,
2013-05-11 14:54:00,91.8,62.6,29.93,North,9,0.0,0.0,38,0.00,,---,0.00,VWS V14.01,2013-05-11 21:54:00,
2013-05-11 14:59:00,92.3,62.3,29.93,North,360,0.0,0.0,37,0.00,,---,0.00,VWS V14.01,2013-05-11 21:59:00,
2013-05-11 15:04:00,92.8,61.2,29.93,ESE,109,2.0,0.0,35,0.00,,---,0.00,VWS V14.01,2013-05-11 22:04:00,
2013-05-11 15:09:00,92.6,60.2,29.92,East,81,1.0,0.0,34,0.00,,---,0.00,VWS V14.01,2013-05-11 22:09:00,
2013-05-11 15:14:00,92.1,59.7,29.92,NE,55,0.0,0.0,34,0.00,,---,0.00,VWS V14.01,2013-05-11 22:14:00,
2013-05-11 15:19:00,91.8,61.1,29.92,East,89,2.0,0.0,36,0.00,,---,0.00,VWS V14.01,2013-05-11 22:19:00,
2013-05-11 15:24:00,91.9,59.5,29.92,NNE,29,0.0,0.0,34,0.00,,---,0.00,VWS V14.01,2013-05-11 22:24:00,
2013-05-11 15:29:00,92.0,59.6,29.92,West,278,0.0,0.0,34,0.00,,---,0.00,VWS V14.01,2013-05-11 22:29:00,
2013-05-11 15:34:00,91.6,60.1,29.92,West,263,0.0,0.0,35,0.00,,---,0.00,VWS V14.01,2013-05-11 22:34:00,
2013-05-11 15:39:00,91.4,59.9,29.92,West,263,0.0,0.0,35,0.00,,---,0.00,VWS V14.01,2013-05-11 22:39:00,
2013-05-11 15:44:00,91.5,60.8,29.92,NE,51,1.0,0.0,36,0.00,,---,0.00,VWS V14.01,2013-05-11 22:44:00,
2013-05-11 15:49:00,91.7,59.4,29.91,West,276,3.0,0.0,34,0.00,,---,0.00,VWS V14.01,2013-05-11 22:49:00,
2013-05-11 15:54:00,91.3,59.0,29.91,WNW,291,0.0,0.0,34,0.00,,---,0.00,VWS V14.01,2013-05-11 22:54:00,
2013-05-11 15:59:00,91.1,62.7,29.91,WSW,257,0.0,0.0,39,0.00,,---,0.00,VWS V14.01,2013-05-11 22:59:00,
2013-05-11 16:04:00,90.7,60.1,29.91,WNW,299,1.0,0.0,36,0.00,,---,0.00,VWS V14.01,2013-05-11 23:04:00,
2013-05-11 16:09:00,90.8,61.7,29.91,NE,34,0.0,0.0,38,0.00,,---,0.00,VWS V14.01,2013-05-11 23:09:00,
2013-05-11 16:14:00,90.8,61.7,29.91,NE,45,0.0,0.0,38,0.00,,---,0.00,VWS V14.01,2013-05-11 23:14:00,
2013-05-11 16:19:00,90.8,60.2,29.91,ESE,110,0.0,0.0,36,0.00,,---,0.00,VWS V14.01,2013-05-11 23:19:00,
2013-05-11 16:24:00,90.7,62.4,29.91,West,263,1.0,0.0,39,0.00,,---,0.00,VWS V14.01,2013-05-11 23:24:00,
2013-05-11 16:30:00,90.6,60.8,29.91,WNW,291,1.0,0.0,37,0.00,,---,0.00,VWS V14.01,2013-05-11 23:30:00,
2013-05-11 16:35:00,90.6,60.8,29.90,WSW,248,1.0,0.0,37,0.00,,---,0.00,VWS V14.01,2013-05-11 23:35:00,
2013-05-11 16:40:00,90.5,60.7,29.90,WSW,244,0.0,0.0,37,0.00,,---,0.00,VWS V14.01,2013-05-11 23:40:00,
2013-05-11 16:45:00,90.4,62.1,29.91,SE,134,0.0,0.0,39,0.00,,---,0.00,VWS V14.01,2013-05-11 23:45:00,
2013-05-11 16:50:00,90.4,62.8,29.90,SSW,192,0.0,0.0,40,0.00,,---,0.00,VWS V14.01,2013-05-11 23:50:00,
2013-05-11 16:55:00,90.2,61.9,29.90,SSW,192,0.0,0.0,39,0.00,,---,0.00,VWS V14.01,2013-05-11 23:55:00,
2013-05-11 17:00:00,90.1,61.1,29.90,SSW,192,1.0,0.0,38,0.00,,---,0.00,VWS V14.01,2013-05-12 00:00:00,
2013-05-11 17:05:00,89.9,61.7,29.91,SSW,192,0.0,0.0,39,0.00,,---,0.00,VWS V14.01,2013-05-12 00:05:00,
2013-05-11 17:10:00,89.9,61.7,29.90,SSW,192,0.0,0.0,39,0.00,,---,0.00,VWS V14.01,2013-05-12 00:10:00,
2013-05-11 17:15:00,89.9,61.7,29.90,SW,217,1.0,0.0,39,0.00,,---,0.00,VWS V14.01,2013-05-12 00:15:00,
2013-05-11 17:20:00,90.0,61.0,29.90,North,351,0.0,0.0,38,0.00,,---,0.00,VWS V14.01,2013-05-12 00:20:00,
2013-05-11 17:25:00,90.0,60.3,29.91,East,95,0.0,0.0,37,0.00,,---,0.00,VWS V14.01,2013-05-12 00:25:00,
2013-05-11 17:30:00,89.9,60.2,29.90,ENE,69,0.0,0.0,37,0.00,,---,0.00,VWS V14.01,2013-05-12 00:30:00,
2013-05-11 17:35:00,90.0,60.3,29.90,NE,51,0.0,0.0,37,0.00,,---,0.00,VWS V14.01,2013-05-12 00:35:00,
2013-05-11 17:40:00,90.0,61.0,29.90,ENE,67,0.0,0.0,38,0.00,,---,0.00,VWS V14.01,2013-05-12 00:40:00,
2013-05-11 17:45:00,90.0,60.3,29.90,ENE,67,0.0,0.0,37,0.00,,---,0.00,VWS V14.01,2013-05-12 00:45:00,
2013-05-11 17:50:00,90.0,61.0,29.90,NE,55,1.0,0.0,38,0.00,,---,0.00,VWS V14.01,2013-05-12 00:50:00,
2013-05-11 17:55:00,90.0,61.7,29.90,NNE,31,0.0,0.0,39,0.00,,---,0.00,VWS V14.01,2013-05-12 00:55:00,
2013-05-11 18:00:00,90.0,61.0,29.90,NE,55,0.0,0.0,38,0.00,,---,0.00,VWS V14.01,2013-05-12 01:00:00,
2013-05-11 18:06:00,89.7,60.0,29.90,East,94,2.0,0.0,37,0.00,,---,0.00,VWS V14.01,2013-05-12 01:06:00,
2013-05-11 18:11:00,89.5,59.8,29.90,NE,53,0.0,0.0,37,0.00,,---,0.00,VWS V14.01,2013-05-12 01:11:00,
2013-05-11 18:16:00,89.3,59.6,29.90,NE,53,1.0,0.0,37,0.00,,---,0.00,VWS V14.01,2013-05-12 01:16:00,
2013-05-11 18:21:00,89.2,61.8,29.90,NE,47,0.0,0.0,40,0.00,,---,0.00,VWS V14.01,2013-05-12 01:21:00,
2013-05-11 18:26:00,89.0,60.8,29.90,NE,46,0.0,0.0,39,0.00,,---,0.00,VWS V14.01,2013-05-12 01:26:00,
2013-05-11 18:31:00,88.7,62.0,29.90,NE,47,0.0,0.0,41,0.00,,---,0.00,VWS V14.01,2013-05-12 01:31:00,
2013-05-11 18:36:00,88.4,63.7,29.90,NE,46,0.0,0.0,44,0.00,,---,0.00,VWS V14.01,2013-05-12 01:36:00,
2013-05-11 18:41:00,87.7,63.1,29.90,NE,46,0.0,0.0,44,0.00,,---,0.00,VWS V14.01,2013-05-12 01:41:00,
2013-05-11 18:46:00,86.8,62.9,29.90,NE,47,0.0,0.0,45,0.00,,---,0.00,VWS V14.01,2013-05-12 01:46:00,
2013-05-11 18:51:00,86.1,63.5,29.90,NE,46,0.0,0.0,47,0.00,,---,0.00,VWS V14.01,2013-05-12 01:51:00,
2013-05-11 18:56:00,85.6,63.7,29.89,NE,46,0.0,0.0,48,0.00,,---,0.00,VWS V14.01,2013-05-12 01:56:00,
2013-05-11 19:01:00,85.1,62.6,29.89,NE,46,0.0,0.0,47,0.00,,---,0.00,VWS V14.01,2013-05-12 02:01:00,
2013-05-11 19:06:00,84.7,64.0,29.89,NE,46,0.0,0.0,50,0.00,,---,0.00,VWS V14.01,2013-05-12 02:06:00,
2013-05-11 19:11:00,84.3,63.7,29.90,NE,46,0.0,0.0,50,0.00,,---,0.00,VWS V14.01,2013-05-12 02:11:00,
2013-05-11 19:16:00,84.1,64.0,29.89,NE,46,0.0,0.0,51,0.00,,---,0.00,VWS V14.01,2013-05-12 02:16:00,
2013-05-11 19:21:00,83.8,62.6,29.90,NE,46,0.0,0.0,49,0.00,,---,0.00,VWS V14.01,2013-05-12 02:21:00,
2013-05-11 19:26:00,83.5,63.5,29.90,NE,46,0.0,0.0,51,0.00,,---,0.00,VWS V14.01,2013-05-12 02:26:00,
2013-05-11 19:31:00,83.2,63.8,29.90,NE,46,0.0,0.0,52,0.00,,---,0.00,VWS V14.01,2013-05-12 02:31:00,
2013-05-11 19:36:00,82.8,62.3,29.90,NE,46,0.0,0.0,50,0.00,,---,0.00,VWS V14.01,2013-05-12 02:36:00,
2013-05-11 19:41:00,82.4,61.9,29.90,NE,46,0.0,0.0,50,0.00,,---,0.00,VWS V14.01,2013-05-12 02:41:00,
2013-05-11 19:46:00,82.1,62.2,29.90,NE,46,0.0,0.0,51,0.00,,---,0.00,VWS V14.01,2013-05-12 02:46:00,
2013-05-11 19:51:00,81.7,60.7,29.90,NE,46,0.0,0.0,49,0.00,,---,0.00,VWS V14.01,2013-05-12 02:51:00,
2013-05-11 19:57:00,81.2,61.4,29.90,NE,46,0.0,0.0,51,0.00,,---,0.00,VWS V14.01,2013-05-12 02:57:00,
2013-05-11 20:02:00,80.9,61.6,29.90,NE,46,0.0,0.0,52,0.00,,---,0.00,VWS V14.01,2013-05-12 03:02:00,
2013-05-11 20:07:00,80.6,62.4,29.90,NE,46,0.0,0.0,54,0.00,,---,0.00,VWS V14.01,2013-05-12 03:07:00,
2013-05-11 20:12:00,80.3,62.2,29.91,NE,46,0.0,0.0,54,0.00,,---,0.00,VWS V14.01,2013-05-12 03:12:00,
2013-05-11 20:17:00,80.1,62.5,29.91,NE,46,0.0,0.0,55,0.00,,---,0.00,VWS V14.01,2013-05-12 03:17:00,
2013-05-11 20:22:00,79.8,62.7,29.91,NE,46,0.0,0.0,56,0.00,,---,0.00,VWS V14.01,2013-05-12 03:22:00,
2013-05-11 20:27:00,79.5,62.5,29.91,NE,46,0.0,0.0,56,0.00,,---,0.00,VWS V14.01,2013-05-12 03:27:00,
2013-05-11 20:32:00,79.3,62.3,29.91,NE,46,0.0,0.0,56,0.00,,---,0.00,VWS V14.01,2013-05-12 03:32:00,
2013-05-11 20:37:00,79.0,62.5,29.91,NE,46,0.0,0.0,57,0.00,,---,0.00,VWS V14.01,2013-05-12 03:37:00,
2013-05-11 20:42:00,78.7,62.7,29.91,NE,46,0.0,0.0,58,0.00,,---,0.00,VWS V14.01,2013-05-12 03:42:00,
2013-05-11 20:47:00,78.4,62.4,29.91,NE,46,0.0,0.0,58,0.00,,---,0.00,VWS V14.01,2013-05-12 03:47:00,
2013-05-11 20:52:00,78.1,62.1,29.91,NE,46,0.0,0.0,58,0.00,,---,0.00,VWS V14.01,2013-05-12 03:52:00,
2013-05-11 20:57:00,77.9,62.4,29.91,NE,46,0.0,0.0,59,0.00,,---,0.00,VWS V14.01,2013-05-12 03:57:00,
2013-05-11 21:01:00,77.6,62.6,29.91,NNE,26,0.0,0.0,60,0.00,,---,0.00,VWS V14.01,2013-05-12 04:01:00,
2013-05-11 21:04:00,77.3,62.8,29.91,NNE,26,0.0,0.0,61,0.00,,---,0.00,VWS V14.01,2013-05-12 04:04:00,
2013-05-11 21:10:00,77.0,62.1,29.92,NNE,26,0.0,0.0,60,0.00,,---,0.00,VWS V14.01,2013-05-12 04:10:00,
2013-05-11 21:15:00,76.7,62.2,29.92,NNE,26,0.0,0.0,61,0.00,,---,0.00,VWS V14.01,2013-05-12 04:15:00,
2013-05-11 21:20:00,76.4,62.0,29.92,NNE,26,0.0,0.0,61,0.00,,---,0.00,VWS V14.01,2013-05-12 04:20:00,
2013-05-11 21:25:00,76.1,61.7,29.92,NNE,26,0.0,0.0,61,0.00,,---,0.00,VWS V14.01,2013-05-12 04:25:00,
2013-05-11 21:30:00,75.8,61.9,29.92,NNE,26,0.0,0.0,62,0.00,,---,0.00,VWS V14.01,2013-05-12 04:30:00,
2013-05-11 21:35:00,75.6,61.7,29.92,NNE,26,0.0,0.0,62,0.00,,---,0.00,VWS V14.01,2013-05-12 04:35:00,
2013-05-11 21:40:00,75.3,61.4,29.92,NNE,26,0.0,0.0,62,0.00,,---,0.00,VWS V14.01,2013-05-12 04:40:00,
2013-05-11 21:45:00,75.1,61.7,29.92,NNE,26,0.0,0.0,63,0.00,,---,0.00,VWS V14.01,2013-05-12 04:45:00,
2013-05-11 21:50:00,74.9,61.5,29.92,NNE,26,0.0,0.0,63,0.00,,---,0.00,VWS V14.01,2013-05-12 04:50:00,
2013-05-11 21:55:00,74.7,61.3,29.93,NNE,26,0.0,0.0,63,0.00,,---,0.00,VWS V14.01,2013-05-12 04:55:00,
2013-05-11 22:00:00,74.5,61.1,29.93,NNE,26,0.0,0.0,63,0.00,,---,0.00,VWS V14.01,2013-05-12 05:00:00,
2013-05-11 22:05:00,74.3,61.3,29.93,NNE,26,0.0,0.0,64,0.00,,---,0.00,VWS V14.01,2013-05-12 05:05:00,
2013-05-11 22:10:00,74.2,61.7,29.93,NNE,26,0.0,0.0,65,0.00,,---,0.00,VWS V14.01,2013-05-12 05:10:00,
2013-05-11 22:15:00,74.0,61.5,29.93,NNE,26,0.0,0.0,65,0.00,,---,0.00,VWS V14.01,2013-05-12 05:15:00,
2013-05-11 22:21:00,73.9,61.4,29.93,NNE,26,0.0,0.0,65,0.00,,---,0.00,VWS V14.01,2013-05-12 05:21:00,
2013-05-11 22:26:00,73.7,61.2,29.93,NNE,26,0.0,0.0,65,0.00,,---,0.00,VWS V14.01,2013-05-12 05:26:00,
2013-05-11 22:31:00,73.5,61.0,29.93,NNE,26,0.0,0.0,65,0.00,,---,0.00,VWS V14.01,2013-05-12 05:31:00,
2013-05-11 22:36:00,73.4,61.4,29.93,NNE,26,0.0,0.0,66,0.00,,---,0.00,VWS V14.01,2013-05-12 05:36:00,
2013-05-11 22:41:00,73.2,61.2,29.94,NNE,26,0.0,0.0,66,0.00,,---,0.00,VWS V14.01,2013-05-12 05:41:00,
2013-05-11 22:46:00,73.0,61.0,29.94,NNE,26,0.0,0.0,66,0.00,,---,0.00,VWS V14.01,2013-05-12 05:46:00,
2013-05-11 22:51:00,72.8,60.8,29.93,NNE,26,0.0,0.0,66,0.00,,---,0.00,VWS V14.01,2013-05-12 05:51:00,
2013-05-11 22:56:00,72.7,61.1,29.93,NNE,26,0.0,0.0,67,0.00,,---,0.00,VWS V14.01,2013-05-12 05:56:00,
2013-05-11 23:01:00,72.6,61.0,29.93,NNE,26,0.0,0.0,67,0.00,,---,0.00,VWS V14.01,2013-05-12 06:01:00,
2013-05-11 23:06:00,72.5,60.9,29.94,NNE,26,0.0,0.0,67,0.00,,---,0.00,VWS V14.01,2013-05-12 06:06:00,
2013-05-11 23:11:00,72.3,61.2,29.94,NNE,26,0.0,0.0,68,0.00,,---,0.00,VWS V14.01,2013-05-12 06:11:00,
2013-05-11 23:16:00,72.3,61.2,29.94,NNE,26,0.0,0.0,68,0.00,,---,0.00,VWS V14.01,2013-05-12 06:16:00,
2013-05-11 23:21:00,72.3,61.2,29.94,NNE,26,0.0,0.0,68,0.00,,---,0.00,VWS V14.01,2013-05-12 06:21:00,
2013-05-11 23:26:00,72.2,61.1,29.94,NNE,26,0.0,0.0,68,0.00,,---,0.00,VWS V14.01,2013-05-12 06:26:00,
2013-05-11 23:31:00,72.1,61.4,29.94,NNE,26,0.0,0.0,69,0.00,,---,0.00,VWS V14.01,2013-05-12 06:31:00,
2013-05-11 23:36:00,72.1,61.0,29.94,NNE,26,0.0,0.0,68,0.00,,---,0.00,VWS V14.01,2013-05-12 06:36:00,
2013-05-11 23:41:00,71.9,60.8,29.94,NNE,26,0.0,0.0,68,0.00,,---,0.00,VWS V14.01,2013-05-12 06:41:00,
2013-05-11 23:46:00,71.9,60.8,29.94,NNE,26,0.0,0.0,68,0.00,,---,0.00,VWS V14.01,2013-05-12 06:46:00,
2013-05-11 23:51:00,71.7,61.0,29.94,NNE,26,0.0,0.0,69,0.00,,---,0.00,VWS V14.01,2013-05-12 06:51:00,
2013-05-11 23:56:00,71.6,60.9,29.94,NNE,26,0.0,0.0,69,0.00,,---,0.00,VWS V14.01,2013-05-12 06:56:00,